Overview Statistics Trail Chart Weather Telemetry Raw packets
 

This is the latest recevied weather packets stored in our database for station/object DC1MPP-9. If no packets are shown the sender has not sent any weather packets the latest 10 day(s).

<< 65 66 67 68 69 70 71 >>
Time Temp. Humidity Pressure Rain* Wind** Luminosity Snow
1788100674 28.33° C 47% 958 hPa - - - -
1788100433 28.89° C 46% 958 hPa - - - -
1788100198 28.89° C 44% 958 hPa - - - -
1788099951 29.44° C 45% 958 hPa - - - -
1788099475 28.89° C 46% 958 hPa - - - -
1788099228 28.89° C 45% 958 hPa - - - -
1788098987 28.89° C 43% 958 hPa - - - -
1788098746 28.89° C 46% 958 hPa - - - -
1788098505 28.89° C 44% 958 hPa - - - -
1788098264 28.89° C 44% 958 hPa - - - -
1788098023 28.89° C 43% 958 hPa - - - -
1788097782 29.44° C 42% 958 hPa - - - -
1788097540 29.44° C 44% 958 hPa - - - -
1788097058 28.89° C 49% 958 hPa - - - -
1788096817 28.33° C 44% 958 hPa - - - -
1788096094 28.89° C 46% 959 hPa - - - -
1788095371 28.89° C 45% 959 hPa - - - -
1788095130 29.44° C 43% 959 hPa - - - -
1788094648 30° C 42% 959 hPa - - - -
1788094407 30° C 44% 959 hPa - - - -
1788094165 30° C 46% 959 hPa - - - -
1788093924 30° C 47% 959 hPa - - - -
1788093683 30° C 47% 959 hPa - - - -
1788093442 29.44° C 43% 959 hPa - - - -
1788093201 29.44° C 45% 959 hPa - - - -

* Rain since midnight (hover to see other rain measurements)
** Current wind speed in m/s (hover to see current wind gust speed)